[[{"header":{"parameterUnit":"m.s-1","parameterCategory":1,"la1":30.2991,"la2":30.254,"lo1":-89.0895,"lo2":-89.0444,"dy":0.0017,"dx":0.0017,"nx":28,"ny":28,"refTime":"2025-05-23T09:00:00:Z","depth":0,"parameterNumber":2,"parameterNumberName":"U-component_of_WINDS"},"data":[0,0,0,0,0,0,0,0,0,0,0,0,0,0,0,0,0,0,0,0,0,0,0,0,0,0,0,0,0,0,0,0,0,0,0,0,0,0,0,0,0,0,0,0,0,0,0,0,0,0,0,0,0,0,0,0,0,0,1.4384,1.4384,0,1.4422,1.4423,1.4423,1.4425,1.4424,1.4424,1.4423,1.4465,1.4466,1.4468,0,0,0,0,0,0,0,0,0,0,0,0,0,1.4315,1.4316,1.4384,1.4384,1.4385,1.4422,1.4423,1.4423,1.4425,1.4424,1.4424,1.4423,1.4464,1.4466,1.4468,0,0,0,0,0,0,0,0,0,0,0,0,0,1.4348,1.4316,1.4384,1.439,1.4391,1.4422,1.4423,1.4423,1.4425,1.4424,1.4424,1.4423,1.4464,1.4466,1.4468,1.4496,0,0,1.4475,1.4476,0,0,0,0,0,0,0,0,1.4346,1.4351,1.4389,1.439,1.4391,1.4418,1.4413,1.4448,1.4425,1.4412,1.4423,1.4423,1.445,1.4453,1.4462,1.4498,1.45,1.4476,1.4477,1.4478,1.4479,0,0,0,0,0,0,0,1.4344,1.4349,1.4399,1.4389,1.4391,1.4392,1.4396,1.442,1.4435,1.4413,1.4413,1.4418,1.445,1.446,1.4463,1.4501,1.4475,1.4478,1.4479,1.448,1.4562,1.4563,0,0,0,0,0,0,1.434,1.4347,1.4398,1.44,1.4366,1.4394,1.4398,1.441,1.4434,1.4437,1.4418,1.4418,1.4456,1.446,1.4465,1.4499,1.4478,1.448,1.4481,1.4561,1.4562,1.4563,0,0,0,0,0,0,1.4339,1.4345,1.4396,1.4374,1.438,1.4396,1.4409,1.4411,1.442,1.4438,1.4441,1.4425,1.4456,1.4461,1.4488,1.45,1.4481,1.4483,1.456,1.4561,1.4562,1.4568,0,0,0,0,0,0,1.4337,1.4344,1.4354,1.4374,1.4382,1.4419,1.441,1.4412,1.4424,1.4424,1.4445,1.4448,1.4456,1.4485,1.4491,1.4503,1.4485,1.4559,1.4561,1.4562,1.4566,1.4569,1.4571,0,0,0,0,0,1.4334,1.4355,1.4355,1.4361,1.4394,1.4419,1.4424,1.4431,1.4425,1.4436,1.4447,1.4447,1.4498,1.4488,1.4494,1.4507,1.4558,1.456,1.4562,1.4565,1.4568,1.4571,0,0,0,0,0,0,1.4336,1.4357,1.4358,1.4385,1.44,1.4419,1.4433,1.4434,1.4452,1.4451,1.4461,1.4466,1.4492,1.4503,1.4491,1.4536,1.4528,1.4531,1.4528,1.4531,1.4533,1.453,1.4487,0,0,0,0,0,1.434,1.4358,1.4375,1.4398,1.4405,1.4418,1.4429,1.4434,1.445,1.4457,1.447,1.4487,1.4507,1.4519,1.4539,1.4568,1.4573,1.4581,1.4583,1.4585,1.4587,1.4604,1.4607,1.4569,1.4569,1.4569,0,0,1.4348,1.4361,1.4372,1.4398,1.4411,1.443,1.4423,1.4443,1.4458,1.446,1.4486,1.4497,1.4516,1.4544,1.4557,1.4554,1.4599,1.4587,1.4588,1.459,1.4606,1.461,1.4613,1.457,1.457,1.457,0,0,1.4371,1.4383,1.4403,1.4416,1.4434,1.4443,1.4448,1.4467,1.4474,1.45,1.4502,1.452,1.4553,1.4567,1.4578,1.4608,1.4609,1.4614,1.4625,1.4641,1.4644,1.4647,1.4658,1.4661,1.4616,1.4616,1.4616,0,1.4379,1.4406,1.4413,1.4433,1.4445,1.4448,1.4469,1.4481,1.4505,1.4513,1.4509,1.4551,1.4565,1.4596,1.4603,1.4612,1.4619,1.4611,1.4643,1.4646,1.4649,1.4659,1.4663,1.4617,1.4617,1.4617,1.4617,0,1.4414,1.4434,1.4448,1.447,1.4484,1.4504,1.4515,1.4528,1.4532,1.4541,1.4568,1.4584,1.4606,1.4614,1.4618,1.4646,1.4644,1.4641,1.4633,1.4653,1.4662,1.4666,1.4617,1.4617,1.4617,1.4617,0,0,1.444,1.4467,1.4472,1.4482,1.4503,1.4518,1.4539,1.456,1.4571,1.4588,1.4606,1.4635,1.4633,1.4646,1.4651,1.4665,1.4688,1.4661,1.4662,1.4665,1.472,1.4722,1.4726,1.4689,1.4689,1.469,1.4718,0,1.4466,1.4502,1.4509,1.4541,1.4559,1.4562,1.458,1.4595,1.4605,1.4622,1.4633,1.4652,1.4648,1.4656,1.467,1.4682,1.4699,1.468,1.4706,1.4707,1.47,1.4731,1.4733,1.4759,1.4722,1.4723,1.4723,0,1.45,1.4517,1.4551,1.4569,1.4577,1.4593,1.4614,1.463,1.4648,1.4653,1.4668,1.4672,1.4695,1.4686,1.4717,1.4704,1.4715,1.4723,1.4724,1.4727,1.4716,1.4734,1.4767,1.4771,1.4729,1.4729,1.4728,0,1.4516,1.4547,1.4571,1.458,1.4602,1.4614,1.4624,1.4641,1.4653,1.4671,1.4679,1.47,1.4712,1.4728,1.4738,1.473,1.4769,1.476,1.4774,1.4774,1.4782,1.4781,1.4817,1.479,1.479,1.479,1.4789,0,1.4544,1.4564,1.4578,1.4593,1.4616,1.4625,1.4647,1.4657,1.4673,1.469,1.4694,1.471,1.4723,1.4741,1.4749,1.4774,1.4779,1.4785,1.4787,1.4784,1.4784,1.4792,1.479,1.4791,1.479,1.479,1.479,0,1.4564,1.4575,1.4601,1.462,1.4625,1.4642,1.4658,1.4673,1.4682,1.4704,1.471,1.4725,1.4747,1.4758,1.4786,1.4791,1.4819,1.482,1.4813,1.4813,1.4827,1.4825,1.4869,1.4875,1.4843,1.4844,1.4844,0,1.4581,1.4597,1.4618,1.4629,1.4639,1.4658,1.467,1.468,1.4693,1.4714,1.4727,1.4748,1.4766,1.4801,1.4815,1.4836,1.4837,1.4851,1.484,1.4838,1.4837,1.4836,1.4838,1.4853,1.4853,1.4853,1.4853,0,1.461,1.4615,1.4632,1.4652,1.4666,1.4682,1.4698,1.4708,1.472,1.4735,1.4756,1.477,1.4798,1.4819,1.4842,1.4853,1.4855,1.4857,1.4861,1.4859,1.4854,1.4856,1.4817,1.4856,1.4855,1.4855,1.4855,1.4855,1.463,1.4644,1.466,1.468,1.4693,1.4707,1.4722,1.4733,1.4751,1.4774,1.4779,1.4802,1.482,1.485,1.4862,1.488,1.4878,1.4884,1.4886,1.4887,1.4887,1.4851,1.4885,1.4884,1.4884,1.4884,1.4884,0,1.4659,1.467,1.4688,1.4709,1.4725,1.4725,1.4743,1.4756,1.4776,1.4792,1.481,1.4835,1.4856,1.4871,1.4893,1.4905,1.4907,1.4911,1.491,1.4912,1.4889,1.4883,1.4909,1.4909,1.4909,1.4909,1.4909,1.4909,1.4676,1.4699,1.4706,1.4736,1.4747,1.4769,1.4779,1.4793,1.4806,1.4834,1.4851,1.4861,1.4877,1.49,1.4919,1.4923,1.4931,1.4935,1.4939,1.4917,1.4914,1.4911,1.4906,1.4936,1.4936,1.4961,1.4961,1.4961]},{"header":{"parameterUnit":"m.s-1","parameterCategory":1,"la1":30.2991,"la2":30.254,"lo1":-89.0895,"lo2":-89.0444,"dy":0.0017,"dx":0.0017,"nx":28,"ny":28,"refTime":"2025-05-23T09:00:00:Z","depth":0,"parameterNumber":3,"parameterNumberName":"V-component_of_WINDS"},"data":[0,0,0,0,0,0,0,0,0,0,0,0,0,0,0,0,0,0,0,0,0,0,0,0,0,0,0,0,0,0,0,0,0,0,0,0,0,0,0,0,0,0,0,0,0,0,0,0,0,0,0,0,0,0,0,0,0,0,3.0496,3.0496,0,3.0474,3.0474,3.0474,3.0455,3.0455,3.0455,3.0455,3.0429,3.0428,3.0428,0,0,0,0,0,0,0,0,0,0,0,0,0,3.0519,3.0519,3.0496,3.0496,3.0495,3.0474,3.0474,3.0474,3.0455,3.0455,3.0455,3.0454,3.0429,3.0429,3.0428,0,0,0,0,0,0,0,0,0,0,0,0,0,3.0505,3.0519,3.0496,3.0484,3.0482,3.0474,3.0474,3.0474,3.0455,3.0455,3.0455,3.0454,3.0429,3.0429,3.0428,3.0429,0,0,3.0426,3.0425,0,0,0,0,0,0,0,0,3.0505,3.0504,3.0486,3.0484,3.0483,3.0467,3.0473,3.0459,3.0455,3.0465,3.0455,3.0454,3.0442,3.044,3.0436,3.0428,3.0427,3.0426,3.0425,3.0425,3.0425,0,0,0,0,0,0,0,3.0506,3.0504,3.0487,3.0485,3.0484,3.0479,3.0476,3.047,3.0455,3.0464,3.0463,3.0461,3.0441,3.0437,3.0436,3.0426,3.0426,3.0425,3.0424,3.0424,3.042,3.042,0,0,0,0,0,0,3.051,3.0505,3.0488,3.0487,3.0494,3.0478,3.0476,3.0472,3.0455,3.0453,3.0461,3.046,3.0439,3.0437,3.0435,3.0436,3.0425,3.0424,3.0424,3.042,3.042,3.042,0,0,0,0,0,0,3.051,3.0508,3.0489,3.0496,3.0493,3.0478,3.0475,3.0472,3.0468,3.0453,3.045,3.046,3.0438,3.0436,3.0431,3.0435,3.0424,3.0423,3.0419,3.042,3.042,3.0439,0,0,0,0,0,0,3.0511,3.0509,3.0509,3.0496,3.0493,3.0486,3.0475,3.0472,3.0468,3.0466,3.0451,3.0448,3.0438,3.0433,3.0431,3.0434,3.0422,3.0419,3.042,3.042,3.0438,3.044,3.0442,0,0,0,0,0,3.0512,3.0514,3.0509,3.0507,3.0493,3.0487,3.0484,3.0473,3.0468,3.0468,3.0459,3.0449,3.0435,3.0432,3.043,3.0433,3.0419,3.0419,3.042,3.0437,3.0439,3.0442,0,0,0,0,0,0,3.0526,3.0512,3.0507,3.0505,3.0497,3.0483,3.0483,3.0476,3.0469,3.0467,3.0453,3.0449,3.0447,3.0439,3.0436,3.0434,3.0426,3.0426,3.0439,3.0441,3.0443,3.0445,3.0422,0,0,0,0,0,3.053,3.0526,3.0514,3.0513,3.051,3.0498,3.0494,3.0486,3.0477,3.0474,3.0464,3.0455,3.0449,3.0445,3.0438,3.0437,3.0434,3.0438,3.044,3.0442,3.0442,3.0442,3.0444,3.0423,3.0423,3.0423,0,0,3.0535,3.0527,3.0526,3.0516,3.0509,3.0506,3.0495,3.0491,3.0488,3.0473,3.0469,3.0461,3.045,3.0448,3.0447,3.0442,3.0447,3.0443,3.0444,3.0443,3.0443,3.0445,3.0447,3.0424,3.0423,3.0423,0,0,3.0545,3.0538,3.0538,3.0532,3.0523,3.0515,3.0515,3.0503,3.0498,3.0494,3.0483,3.048,3.0469,3.0462,3.0457,3.0467,3.0458,3.0465,3.0475,3.0476,3.0477,3.0479,3.0483,3.0485,3.0466,3.0466,3.0466,0,3.0553,3.0548,3.0538,3.0536,3.0532,3.052,3.052,3.0515,3.0503,3.0501,3.0496,3.0484,3.0475,3.0472,3.0475,3.0471,3.0471,3.0466,3.0478,3.048,3.0481,3.0485,3.0486,3.0467,3.0467,3.0467,3.0466,0,3.0559,3.0556,3.0557,3.0549,3.0545,3.0544,3.0533,3.0531,3.0524,3.0517,3.0514,3.0504,3.0496,3.0494,3.0487,3.0491,3.0488,3.0481,3.0472,3.0484,3.0487,3.0489,3.0468,3.0468,3.0468,3.0467,0,0,3.0575,3.0563,3.0564,3.0561,3.0551,3.0548,3.0547,3.054,3.0539,3.0532,3.0531,3.0523,3.0517,3.0512,3.0504,3.0504,3.0514,3.0497,3.0497,3.0501,3.0519,3.0525,3.0527,3.0509,3.0509,3.0509,3.052,0,3.0583,3.0581,3.0573,3.0573,3.0571,3.0561,3.056,3.0554,3.0547,3.0544,3.0537,3.0532,3.0524,3.0521,3.0521,3.0513,3.0518,3.0512,3.0507,3.0507,3.051,3.0528,3.0534,3.0545,3.0522,3.0522,3.0522,0,3.0591,3.0588,3.0588,3.0581,3.0579,3.0579,3.0573,3.057,3.0564,3.0559,3.0555,3.0547,3.0545,3.0537,3.0535,3.0531,3.0529,3.0525,3.0525,3.0524,3.0515,3.0528,3.0548,3.055,3.0524,3.0524,3.0524,0,3.0604,3.0598,3.0599,3.0596,3.0587,3.0587,3.0583,3.0576,3.0574,3.0569,3.0567,3.0562,3.0559,3.0555,3.0546,3.0541,3.0545,3.0536,3.0541,3.0541,3.0541,3.0541,3.0562,3.054,3.054,3.054,3.054,0,3.0613,3.0614,3.0605,3.0604,3.0606,3.0597,3.0598,3.0593,3.0587,3.0586,3.0576,3.0575,3.0563,3.0561,3.0553,3.0553,3.0552,3.0548,3.0546,3.0549,3.0549,3.0547,3.0546,3.054,3.054,3.054,3.054,0,3.0627,3.062,3.062,3.0613,3.0611,3.0612,3.0605,3.0605,3.0599,3.0598,3.0597,3.0588,3.0585,3.0576,3.0569,3.0565,3.0567,3.0563,3.0569,3.0568,3.0574,3.0574,3.0593,3.0596,3.0572,3.0572,3.0573,0,3.0633,3.0634,3.0628,3.0627,3.0624,3.0623,3.0621,3.0613,3.0611,3.0605,3.0606,3.0603,3.0599,3.0595,3.0587,3.0583,3.0579,3.0586,3.0578,3.0582,3.058,3.058,3.0581,3.0588,3.0588,3.0588,3.0589,0,3.0646,3.0643,3.0642,3.064,3.0638,3.0636,3.0633,3.0633,3.0623,3.0622,3.062,3.0618,3.0613,3.061,3.0605,3.0601,3.0593,3.0592,3.0593,3.0595,3.06,3.0598,3.0574,3.0591,3.0591,3.059,3.059,3.059,3.0656,3.0657,3.0654,3.0653,3.065,3.0648,3.0648,3.0644,3.0642,3.0639,3.0634,3.0633,3.0628,3.0621,3.0617,3.0616,3.0611,3.0613,3.0613,3.0614,3.0616,3.06,3.0615,3.0615,3.0614,3.0614,3.0614,0,3.0669,3.0667,3.0666,3.0663,3.0663,3.0658,3.0655,3.0655,3.0654,3.0651,3.0649,3.0647,3.0645,3.0638,3.0635,3.0636,3.0632,3.0635,3.0635,3.0634,3.0619,3.0619,3.0638,3.0638,3.0638,3.0638,3.0638,3.0638,3.0675,3.0677,3.0675,3.0676,3.0674,3.0674,3.0673,3.0671,3.0668,3.0667,3.0666,3.0662,3.0658,3.0655,3.0653,3.0651,3.065,3.0655,3.0651,3.0637,3.0635,3.0633,3.0633,3.0654,3.0654,3.0667,3.0667,3.0667]}]]